Gunsan AB, South Korea

4:02 AM KST on September 19, 2019 (GMT +0900)
Kunsan Air Base

Weather History for RKJK - August, 2019

Change the Weather History Date:

Thursday, August 22, 2019

  Actual Average Record
Temperature  
Mean Temperature 81 °F -  
Max Temperature 86 °F 78 °F 97 °F (2018)
Min Temperature 75 °F 65 °F 68 °F (2008)
Cooling Degree Days 16    
Growing Degree Days 31 (Base 50)    
Moisture  
Dew Point 77 °F    
Average Humidity 95    
Maximum Humidity 100    
Minimum Humidity 70    
Precipitation  
Precipitation 0.76 in - - ()
Sea Level Pressure  
Sea Level Pressure 29.72 in    
Wind  
Wind Speed 4 mph ()    
Max Wind Speed 14 mph    
Max Gust Speed -    
Visibility 4.0 miles    
Events Rain    
Averages and records for this station are not official NWS values.
T = Trace of Precipitation, MM = Missing Value Source: Averaged Metar Reports

Daily Weather History Graph

Daily Weather History Graph

Search for Another Location

Airport or City:

Astronomy

Aug. 22, 2019 Rise Set
Actual Time 5:57 AM KST 7:15 PM KST
Civil Twilight 5:30 AM KST 7:42 PM KST
Nautical Twilight 4:58 AM KST 8:14 PM KST
Astronomical Twilight 4:24 AM KST 8:47 PM KST
Moon 10:57 PM KST (8/22) 11:45 AM KST (8/22)
Length of Visible Light 14h 12m
Length of Day
13h 18m
Waning Gibbous, 65% of the Moon is Illuminated
Aug 22
Waning Gibbous
Aug 23
Last Quarter
Aug 30
New
Sep 6
First Quarter
Sep 14
Full

Hourly Weather History & Observations

Time (KST) Temp. Heat Index Dew Point Humidity Pressure Visibility Wind Dir Wind Speed Gust Speed Precip Events Conditions
12:09 AM 78.8 °F - 78.8 °F 100% 29.75 in 4.0 mi SSE 8.1 mph - N/A Rain Rain
12:19 AM 78.8 °F - 78.8 °F 100% 29.75 in 2.8 mi SE 4.6 mph - N/A Rain Light Rain
12:29 AM 78.8 °F - 78.8 °F 100% 29.75 in 1.9 mi SE 4.6 mph - N/A Rain Rain
12:39 AM 78.8 °F - 78.8 °F 100% 29.74 in 2.0 mi Calm Calm - N/A Rain Light Rain
12:49 AM 78.8 °F - 78.8 °F 100% 29.74 in 2.2 mi Calm Calm - N/A Rain Light Rain
12:56 AM 77.9 °F - 77.9 °F 100% 29.74 in 3.0 mi SSE 4.6 mph - 0.10 in Rain Light Rain
1:11 AM 78.8 °F - 78.8 °F 100% 29.74 in 2.2 mi South 3.5 mph - N/A Rain Heavy Rain
1:21 AM 77.0 °F - 77.0 °F 100% 29.74 in 2.2 mi SW 3.5 mph - N/A Rain Heavy Rain
1:31 AM 77.0 °F - 77.0 °F 100% 29.74 in 1.8 mi SSW 3.5 mph - N/A Rain Heavy Rain
1:45 AM 77.0 °F - 77.0 °F 100% 29.73 in 1.1 mi Calm Calm - N/A Rain Heavy Rain
1:46 AM 77.0 °F - 77.0 °F 100% 29.73 in 1.1 mi Calm Calm - N/A Rain Heavy Rain
1:56 AM 77.4 °F - 77.4 °F 100% 29.73 in 1.2 mi Calm Calm - 0.41 in Rain Heavy Rain
2:06 AM 77.0 °F - 77.0 °F 100% 29.72 in 1.8 mi Calm Calm - N/A Rain Light Rain
2:26 AM 77.0 °F - 77.0 °F 100% 29.72 in 1.6 mi Calm Calm - N/A Rain Heavy Rain
2:31 AM 77.0 °F - 77.0 °F 100% 29.72 in 1.8 mi Calm Calm - N/A Rain Heavy Rain
2:41 AM 77.0 °F - 77.0 °F 100% 29.71 in 2.0 mi Calm Calm - N/A Rain Rain
2:56 AM 77.4 °F - 77.4 °F 100% 29.71 in 2.2 mi Calm Calm - 0.25 in Rain Rain
3:06 AM 77.0 °F - 77.0 °F 100% 29.71 in 3.0 mi SE 4.6 mph - N/A Rain Light Rain
3:16 AM 77.0 °F - 77.0 °F 100% 29.71 in 5.0 mi ESE 3.5 mph - N/A Rain Light Rain
3:26 AM 77.0 °F - 77.0 °F 100% 29.71 in 8.0 mi Calm Calm - N/A   Overcast
3:46 AM 77.0 °F - 77.0 °F 100% 29.71 in 4.0 mi Calm Calm - N/A Rain Rain
4:06 AM 77.0 °F - 77.0 °F 100% 29.70 in 2.2 mi Calm Calm - N/A Rain Heavy Rain
4:26 AM 77.0 °F - 77.0 °F 100% 29.70 in 2.8 mi NNW 8.1 mph - N/A Rain Heavy Rain
4:36 AM 77.0 °F - 77.0 °F 100% 29.70 in 1.9 mi NNW 4.6 mph - N/A Rain Heavy Rain
4:46 AM 77.0 °F - 77.0 °F 100% 29.70 in 1.9 mi NNW 3.5 mph - N/A Rain Heavy Rain
5:06 AM 77.0 °F - 77.0 °F 100% 29.70 in 2.8 mi Calm Calm - N/A Rain Light Rain
5:16 AM 77.0 °F - 77.0 °F 100% 29.70 in 3.0 mi Calm Calm - N/A Rain Light Rain
5:26 AM 77.0 °F - 77.0 °F 100% 29.70 in 3.0 mi NW 4.6 mph - N/A   Light Drizzle
5:30 AM 77.0 °F - 77.0 °F 100% 29.70 in 4.0 mi NNW 5.8 mph - N/A   Light Drizzle
5:50 AM 77.0 °F - 77.0 °F 100% 29.71 in 9.0 mi NNE 4.6 mph - N/A   Overcast
6:56 AM 76.8 °F - 76.8 °F 100% 29.71 in 6.0 mi NNE 6.9 mph - 0.00 in Rain Light Rain
7:41 AM 77.0 °F - 77.0 °F 100% 29.70 in 7.0 mi NNE 5.8 mph - N/A   Mostly Cloudy
8:56 AM 79.2 °F - 79.2 °F 100% 29.73 in 3.0 mi North 9.2 mph - N/A   Mostly Cloudy
9:56 AM 82.2 °F 91.9 °F 78.6 °F 89% 29.73 in 5.0 mi NNE 6.9 mph - N/A   Scattered Clouds
10:56 AM 84.7 °F 94.8 °F 76.6 °F 77% 29.73 in 5.0 mi NNE 4.6 mph - N/A   Haze
11:56 AM 85.8 °F 94.6 °F 74.8 °F 70% 29.72 in 5.0 mi NNW 9.2 mph - N/A   Haze
12:56 PM 86.4 °F 97.8 °F 77.4 °F 74% 29.71 in 5.0 mi West 11.5 mph - N/A   Haze
1:56 PM 86.5 °F 98.3 °F 77.2 °F 74% 29.72 in 5.0 mi WNW 11.5 mph - N/A   Haze
2:56 PM 84.4 °F 95.9 °F 78.3 °F 82% 29.70 in 5.0 mi WNW 12.7 mph - N/A   Haze
3:56 PM 83.3 °F 92.8 °F 77.2 °F 82% 29.71 in 5.0 mi NW 13.8 mph - N/A   Haze
4:56 PM 82.6 °F 88.6 °F 73.4 °F 74% 29.73 in 7.0 mi NW 12.7 mph - N/A   Partly Cloudy
5:56 PM 80.4 °F 83.9 °F 70.5 °F 72% 29.73 in 10.0 mi NNW 9.2 mph - N/A   Partly Cloudy
7:56 PM 77.2 °F - 75.2 °F 94% 29.76 in 8.0 mi NW 6.9 mph - N/A   Clear
8:56 PM 77.5 °F - 75.6 °F 94% 29.78 in 8.0 mi NW 6.9 mph - N/A   Scattered Clouds
9:56 PM 76.1 °F - 75.4 °F 98% 29.78 in 8.0 mi NNW 4.6 mph - N/A   Clear
11:56 PM 75.7 °F - 75.7 °F 100% 29.78 in 7.0 mi NNW 3.5 mph - N/A   Scattered Clouds